IT9LCP-2 Weather Reports


Display with metric or nautical units.
time (UTC)temp
F
wind
direction
speed
MPH
gust
MPH
rain 1hr
in
rain 24hr
in
rain mn
in
humidity
%
barometer
mb
20260504060144 63 76 1.0 2.0 0.00 0.00 0.00 63 1021.7
20260504050144 55 5 1.0 2.0 0.00 0.00 0.00 80 1021.4
20260504045144 54 354 1.0 2.0 0.00 0.00 0.00 81 1021.2
20260504044144 54 327 1.0 2.0 0.00 0.00 0.00 82 1021.1
20260504043144 54 341 1.0 2.0 0.00 0.00 0.00 82 1021.0
20260504042144 54 2 1.0 2.0 0.00 0.00 0.00 82 1020.9
20260504041144 53 333 1.0 2.0 0.00 0.00 0.00 83 1021.0
20260504040144 53 1 1.0 2.0 0.00 0.00 0.00 83 1020.8
20260504035144 53 331 1.0 2.0 0.00 0.00 0.00 83 1020.7
20260504034144 53 359 1.0 2.0 0.00 0.00 0.00 83 1020.8
20260504033144 53 348 0.0 1.0 0.00 0.00 0.00 83 1020.8
20260504032144 53 337 1.0 2.0 0.00 0.00 0.00 83 1020.9
20260504031144 53 355 1.0 2.0 0.00 0.00 0.00 83 1020.9
20260504025144 52 341 0.0 1.0 0.00 0.00 0.00 83 1020.9
20260504024144 52 342 1.0 1.0 0.00 0.00 0.00 83 1020.9
20260504023144 52 337 1.0 1.0 0.00 0.00 0.00 83 1020.9
20260504022144 52 351 1.0 1.0 0.00 0.00 0.00 82 1021.0
20260504021144 52 0 1.0 2.0 0.00 0.00 0.00 82 1021.0
20260504020144 53 353 1.0 1.0 0.00 0.00 0.00 81 1021.0
20260504015144 53 338 1.0 1.0 0.00 0.00 0.00 81 1020.8
20260504014144 53 338 1.0 1.0 0.00 0.00 0.00 80 1020.9
20260504013144 54 15 1.0 2.0 0.00 0.00 0.00 78 1020.8
20260504012144 53 351 1.0 1.0 0.00 0.00 0.00 81 1020.8
20260504011144 53 331 1.0 2.0 0.00 0.00 0.00 83 1020.7
20260504010144 52 356 1.0 2.0 0.00 0.00 0.00 85 1020.7
20260504005145 52 5 1.0 2.0 0.00 0.00 0.00 86 1020.7
20260504004144 52 7 1.0 1.0 0.00 0.00 0.00 86 1020.9
20260504003144 52 1 1.0 2.0 0.00 0.00 0.00 87 1021.1
20260504002144 52 8 1.0 2.0 0.00 0.00 0.00 86 1020.9
20260504001144 52 15 1.0 2.0 0.00 0.00 0.00 86 1020.9
20260504000144 53 321 1.0 2.0 0.00 0.00 0.00 85 1021.2
20260503235144 53 3 0.0 2.0 0.00 0.00 0.00 84 1021.0
20260503233144 54 354 1.0 2.0 0.00 0.00 0.00 84 1021.3
20260503232144 54 355 1.0 2.0 0.00 0.00 0.00 84 1021.6
20260503231144 54 13 1.0 2.0 0.00 0.00 0.00 84 1021.4
20260503230143 54 20 1.0 2.0 0.00 0.00 0.00 84 1021.4
20260503225144 54 348 1.0 2.0 0.00 0.00 0.00 84 1021.5
20260503224144 55 337 1.0 2.0 0.00 0.00 0.00 84 1021.4
20260503223144 55 347 1.0 2.0 0.00 0.00 0.00 84 1021.6
20260503222144 55 3 1.0 2.0 0.00 0.00 0.00 84 1021.7
20260503221144 55 339 1.0 2.0 0.00 0.00 0.00 84 1021.7
20260503220144 55 0 1.0 2.0 0.00 0.00 0.00 84 1021.7
20260503215144 56 0 1.0 2.0 0.00 0.00 0.00 84 1021.6
20260503214146 56 355 1.0 2.0 0.00 0.00 0.00 83 1021.3
20260503213144 57 344 1.0 2.0 0.00 0.00 0.00 84 1021.3
20260503212144 58 358 1.0 2.0 0.00 0.00 0.00 83 1021.4
20260503211144 58 8 1.0 2.0 0.00 0.00 0.00 81 1021.2
20260503210144 58 351 1.0 2.0 0.00 0.00 0.00 78 1021.4
20260503205143 58 8 1.0 2.0 0.00 0.00 0.00 77 1021.6
20260503202144 58 0 1.0 3.0 0.00 0.00 0.00 77 1021.4
20260503201143 59 7 1.0 2.0 0.00 0.00 0.00 76 1021.2
20260503200144 59 4 1.0 3.0 0.00 0.00 0.00 76 1021.2
20260503195144 60 4 2.0 2.0 0.00 0.00 0.00 75 1021.1
20260503194143 60 355 2.0 3.0 0.00 0.00 0.00 74 1021.2
20260503191143 60 356 1.0 2.0 0.00 0.00 0.00 74 1020.9
20260503190143 60 0 2.0 2.0 0.00 0.00 0.00 74 1020.8
20260503185144 60 349 1.0 3.0 0.00 0.00 0.00 75 1020.6
20260503184144 60 344 1.0 3.0 0.00 0.00 0.00 76 1020.5
20260503183144 60 356 2.0 3.0 0.00 0.00 0.00 76 1020.4
20260503181144 61 346 2.0 3.0 0.00 0.00 0.00 74 1020.2
20260503180144 61 359 2.0 3.0 0.00 0.00 0.00 70 1020.2
20260503175144 62 347 1.0 3.0 0.00 0.00 0.00 70 1020.1
20260503174144 62 346 1.0 2.0 0.00 0.00 0.00 70 1020.2
20260503173144 62 329 1.0 2.0 0.00 0.00 0.00 72 1019.9
20260503172144 62 339 1.0 2.0 0.00 0.00 0.00 70 1020.0
20260503171144 62 347 1.0 2.0 0.00 0.00 0.00 70 1019.9
20260503170144 62 86 1.0 1.0 0.00 0.00 0.00 70 1020.1
20260503160144 63 66 1.0 2.0 0.00 0.00 0.00 62 1020.3
20260503150144 64 96 1.0 3.0 0.00 0.00 0.00 55 1020.3
20260503131144 65 62 2.0 5.0 0.00 0.00 0.00 41 1020.9
20260503130143 65 95 2.0 5.0 0.00 0.00 0.00 42 1020.9
20260503120144 67 100 2.0 5.0 0.00 0.00 0.00 40 1021.4
20260503100143 64 100 2.0 5.0 0.00 0.00 0.00 43 1022.3
20260503090143 64 93 2.0 3.0 0.00 0.00 0.00 43 1022.7
20260503081144 62 97 2.0 3.0 0.00 0.00 0.00 42 1022.6
20260503080143 61 79 2.0 3.0 0.00 0.00 0.00 45 1022.7
20260503072144 60 91 1.0 3.0 0.00 0.00 0.00 48 1022.6
20260503071144 60 108 1.0 3.0 0.00 0.00 0.00 48 1022.5
20260503070144 62 95 2.0 3.0 0.00 0.00 0.00 46 1022.5